Time,TemperatureF,DewpointF,PressureIn,WindDirection,WindDirectionDegrees,WindSpeedMPH,WindSpeedGustMPH,Humidity,HourlyPrecipIn,Conditions,Clouds,dailyrainin,SoftwareType,DateUTC
2013-07-17 00:04:00,77.8,67.6,30.23,South,180,1.8,2.7,71,0.00,,,0.00,WUHU216HW,2013-07-17 05:04:00,
2013-07-17 00:09:00,77.8,68.1,30.24,SSW,203,1.8,1.8,72,0.00,,,0.00,WUHU216HW,2013-07-17 05:09:00,
2013-07-17 00:14:00,77.4,67.7,30.23,South,180,2.7,2.7,72,0.00,,,0.00,WUHU216HW,2013-07-17 05:14:00,
2013-07-17 00:19:00,77.4,68.0,30.23,SSW,203,1.3,2.7,73,0.00,,,0.00,WUHU216HW,2013-07-17 05:19:00,
2013-07-17 00:24:00,77.2,67.9,30.24,South,180,1.1,2.7,73,0.00,,,0.00,WUHU216HW,2013-07-17 05:24:00,
2013-07-17 00:29:00,77.0,67.8,30.24,South,180,1.3,1.3,73,0.00,,,0.00,WUHU216HW,2013-07-17 05:29:00,
2013-07-17 00:34:00,76.9,68.0,30.24,South,180,1.6,1.6,74,0.00,,,0.00,WUHU216HW,2013-07-17 05:34:00,
2013-07-17 00:39:00,76.7,67.8,30.24,SSE,158,1.1,1.6,74,0.00,,,0.00,WUHU216HW,2013-07-17 05:39:00,
2013-07-17 00:44:00,76.7,67.8,30.24,South,180,2.5,2.5,74,0.00,,,0.00,WUHU216HW,2013-07-17 05:44:00,
2013-07-17 00:49:00,76.7,68.1,30.24,South,180,2.5,2.5,75,0.00,,,0.00,WUHU216HW,2013-07-17 05:49:00,
2013-07-17 00:54:00,76.7,68.1,30.24,South,180,1.8,2.5,75,0.00,,,0.00,WUHU216HW,2013-07-17 05:54:00,
2013-07-17 00:59:00,76.5,68.0,30.24,South,180,3.4,3.4,75,0.00,,,0.00,WUHU216HW,2013-07-17 05:59:00,
2013-07-17 01:04:00,76.5,68.0,30.24,South,180,1.8,3.4,75,0.00,,,0.00,WUHU216HW,2013-07-17 06:04:00,
2013-07-17 01:09:00,76.3,68.2,30.24,South,180,1.8,1.8,76,0.00,,,0.00,WUHU216HW,2013-07-17 06:09:00,
2013-07-17 01:14:00,76.5,68.0,30.24,South,180,2.9,3.4,75,0.00,,,0.00,WUHU216HW,2013-07-17 06:14:00,
2013-07-17 01:19:00,76.5,68.0,30.24,South,180,2.2,3.4,75,0.00,,,0.00,WUHU216HW,2013-07-17 06:19:00,
2013-07-17 01:24:00,76.5,68.0,30.24,South,180,2.7,2.9,75,0.00,,,0.00,WUHU216HW,2013-07-17 06:24:00,
2013-07-17 01:29:00,76.3,67.8,30.24,SSE,158,1.8,2.7,75,0.00,,,0.00,WUHU216HW,2013-07-17 06:29:00,
2013-07-17 01:34:00,76.1,68.1,30.24,SSW,203,1.1,2.7,76,0.00,,,0.00,WUHU216HW,2013-07-17 06:34:00,
2013-07-17 01:39:00,76.0,68.2,30.24,South,180,1.1,1.6,77,0.00,,,0.00,WUHU216HW,2013-07-17 06:39:00,
2013-07-17 01:44:00,76.0,68.2,30.24,SSW,203,1.1,1.1,77,0.00,,,0.00,WUHU216HW,2013-07-17 06:44:00,
2013-07-17 01:49:00,76.0,68.2,30.24,South,180,0.9,1.3,77,0.00,,,0.00,WUHU216HW,2013-07-17 06:49:00,
2013-07-17 01:54:00,75.8,67.7,30.24,South,180,1.8,1.8,76,0.00,,,0.00,WUHU216HW,2013-07-17 06:54:00,
2013-07-17 01:59:00,75.6,68.0,30.24,South,180,0.9,1.8,77,0.00,,,0.00,WUHU216HW,2013-07-17 06:59:00,
2013-07-17 02:04:00,75.6,68.0,30.24,SSW,203,0.7,2.0,77,0.00,,,0.00,WUHU216HW,2013-07-17 07:04:00,
2013-07-17 02:09:00,75.4,68.1,30.24,SSW,203,0.7,2.0,78,0.00,,,0.00,WUHU216HW,2013-07-17 07:09:00,
2013-07-17 02:14:00,75.4,68.1,30.24,SSW,203,0.9,1.1,78,0.00,,,0.00,WUHU216HW,2013-07-17 07:14:00,
2013-07-17 02:19:00,75.4,67.8,30.24,SSW,203,0.9,1.1,77,0.00,,,0.00,WUHU216HW,2013-07-17 07:19:00,
2013-07-17 02:24:00,75.4,67.8,30.24,SSW,203,1.1,1.1,77,0.00,,,0.00,WUHU216HW,2013-07-17 07:24:00,
2013-07-17 02:29:00,75.4,67.8,30.24,SSW,203,1.3,1.3,77,0.00,,,0.00,WUHU216HW,2013-07-17 07:29:00,
2013-07-17 02:34:00,75.2,68.0,30.24,SSW,203,0.4,1.3,78,0.00,,,0.00,WUHU216HW,2013-07-17 07:34:00,
2013-07-17 02:39:00,75.1,68.2,30.24,SW,225,0.4,1.3,79,0.00,,,0.00,WUHU216HW,2013-07-17 07:39:00,
2013-07-17 02:44:00,74.9,68.4,30.24,SSW,203,1.3,1.3,80,0.00,,,0.00,WUHU216HW,2013-07-17 07:44:00,
2013-07-17 02:49:00,75.1,68.6,30.24,SSW,203,2.5,2.5,80,0.00,,,0.00,WUHU216HW,2013-07-17 07:49:00,
2013-07-17 02:54:00,75.2,68.8,30.24,SSW,203,1.8,2.5,80,0.00,,,0.00,WUHU216HW,2013-07-17 07:54:00,
2013-07-17 02:59:00,75.2,68.8,30.24,SSW,203,2.2,2.2,80,0.00,,,0.00,WUHU216HW,2013-07-17 07:59:00,
2013-07-17 03:04:00,75.4,69.0,30.25,SSW,203,1.6,2.2,80,0.00,,,0.00,WUHU216HW,2013-07-17 08:04:00,
2013-07-17 03:09:00,75.4,69.3,30.24,SSW,203,1.8,2.2,81,0.00,,,0.00,WUHU216HW,2013-07-17 08:09:00,
2013-07-17 03:14:00,75.2,69.1,30.24,SSW,203,1.8,2.2,81,0.00,,,0.00,WUHU216HW,2013-07-17 08:14:00,
2013-07-17 03:19:00,75.4,69.3,30.24,SW,225,3.6,3.6,81,0.00,,,0.00,WUHU216HW,2013-07-17 08:19:00,
2013-07-17 03:24:00,75.4,69.3,30.24,SSW,203,2.5,3.6,81,0.00,,,0.00,WUHU216HW,2013-07-17 08:24:00,
2013-07-17 03:29:00,75.2,69.1,30.24,SW,225,0.4,3.6,81,0.00,,,0.00,WUHU216HW,2013-07-17 08:29:00,
2013-07-17 03:34:00,74.9,68.8,30.24,SW,225,0.4,1.1,81,0.00,,,0.00,WUHU216HW,2013-07-17 08:34:00,
2013-07-17 03:39:00,74.7,68.6,30.24,SW,225,0.9,0.9,81,0.00,,,0.00,WUHU216HW,2013-07-17 08:39:00,
2013-07-17 03:44:00,74.5,68.8,30.24,SW,225,1.3,1.3,82,0.00,,,0.00,WUHU216HW,2013-07-17 08:44:00,
2013-07-17 03:49:00,74.5,69.0,30.24,WSW,248,0.4,1.3,83,0.00,,,0.00,WUHU216HW,2013-07-17 08:49:00,
2013-07-17 03:54:00,74.5,68.8,30.24,SW,225,0.0,1.3,82,0.00,,,0.00,WUHU216HW,2013-07-17 08:54:00,
2013-07-17 03:59:00,74.3,68.9,30.24,SSW,203,1.1,1.1,83,0.00,,,0.00,WUHU216HW,2013-07-17 08:59:00,
2013-07-17 04:04:00,74.2,68.7,30.24,SSW,203,3.4,3.4,83,0.00,,,0.00,WUHU216HW,2013-07-17 09:04:00,
2013-07-17 04:09:00,74.5,68.8,30.24,SW,225,1.1,3.4,82,0.00,,,0.00,WUHU216HW,2013-07-17 09:09:00,
2013-07-17 04:14:00,74.7,69.0,30.24,SW,225,2.0,2.0,82,0.00,,,0.00,WUHU216HW,2013-07-17 09:14:00,
2013-07-17 04:19:00,74.5,68.8,30.24,SSW,203,2.0,2.0,82,0.00,,,0.00,WUHU216HW,2013-07-17 09:19:00,
2013-07-17 04:24:00,74.5,68.8,30.23,SSW,203,1.3,2.0,82,0.00,,,0.00,WUHU216HW,2013-07-17 09:24:00,
2013-07-17 04:29:00,74.3,68.2,30.23,SSW,203,1.1,2.2,81,0.00,,,0.00,WUHU216HW,2013-07-17 09:29:00,
2013-07-17 04:34:00,74.3,68.2,30.23,SSW,203,1.1,2.2,81,0.00,,,0.00,WUHU216HW,2013-07-17 09:34:00,
2013-07-17 04:39:00,74.3,68.2,30.23,South,180,1.6,1.6,81,0.00,,,0.00,WUHU216HW,2013-07-17 09:39:00,
2013-07-17 04:44:00,74.2,68.1,30.23,SSE,158,1.3,1.6,81,0.00,,,0.00,WUHU216HW,2013-07-17 09:44:00,
2013-07-17 04:49:00,74.2,68.1,30.24,SSW,203,1.8,1.8,81,0.00,,,0.00,WUHU216HW,2013-07-17 09:49:00,
2013-07-17 04:54:00,74.0,68.2,30.23,South,180,1.1,1.8,82,0.00,,,0.00,WUHU216HW,2013-07-17 09:54:00,
2013-07-17 04:59:00,74.0,68.2,30.23,South,180,1.8,1.8,82,0.00,,,0.00,WUHU216HW,2013-07-17 09:59:00,
2013-07-17 05:04:00,73.8,68.1,30.23,South,180,2.2,2.2,82,0.00,,,0.00,WUHU216HW,2013-07-17 10:04:00,
2013-07-17 05:09:00,73.8,68.1,30.23,South,180,1.3,2.2,82,0.00,,,0.00,WUHU216HW,2013-07-17 10:09:00,
2013-07-17 05:14:00,73.6,67.9,30.23,South,180,1.6,1.6,82,0.00,,,0.00,WUHU216HW,2013-07-17 10:14:00,
2013-07-17 05:19:00,73.4,68.0,30.24,South,180,1.6,1.6,83,0.00,,,0.00,WUHU216HW,2013-07-17 10:19:00,
2013-07-17 05:24:00,73.4,68.0,30.24,South,180,1.6,1.8,83,0.00,,,0.00,WUHU216HW,2013-07-17 10:24:00,
2013-07-17 05:29:00,73.3,67.8,30.24,South,180,1.8,1.8,83,0.00,,,0.00,WUHU216HW,2013-07-17 10:29:00,
2013-07-17 05:34:00,73.3,68.1,30.24,SSW,203,2.9,2.9,84,0.00,,,0.00,WUHU216HW,2013-07-17 10:34:00,
2013-07-17 05:39:00,73.4,68.0,30.24,South,180,2.2,2.9,83,0.00,,,0.00,WUHU216HW,2013-07-17 10:39:00,
2013-07-17 05:44:00,73.4,68.3,30.24,South,180,2.7,3.4,84,0.00,,,0.00,WUHU216HW,2013-07-17 10:44:00,
2013-07-17 05:49:00,73.4,68.3,30.24,South,180,3.1,3.4,84,0.00,,,0.00,WUHU216HW,2013-07-17 10:49:00,
2013-07-17 05:54:00,73.3,68.1,30.24,South,180,1.8,3.1,84,0.00,,,0.00,WUHU216HW,2013-07-17 10:54:00,
2013-07-17 05:59:00,73.3,68.1,30.24,South,180,2.2,2.7,84,0.00,,,0.00,WUHU216HW,2013-07-17 10:59:00,
2013-07-17 06:04:00,73.1,68.0,30.25,South,180,2.9,2.9,84,0.00,,,0.00,WUHU216HW,2013-07-17 11:04:00,
2013-07-17 06:09:00,73.1,68.0,30.25,SSE,158,2.9,2.9,84,0.00,,,0.00,WUHU216HW,2013-07-17 11:09:00,
2013-07-17 06:14:00,73.1,68.0,30.25,South,180,2.5,2.9,84,0.00,,,0.00,WUHU216HW,2013-07-17 11:14:00,
2013-07-17 06:19:00,73.1,68.3,30.25,SSE,158,2.9,2.9,85,0.00,,,0.00,WUHU216HW,2013-07-17 11:19:00,
2013-07-17 06:24:00,73.1,68.3,30.25,SSE,158,2.9,2.9,85,0.00,,,0.00,WUHU216HW,2013-07-17 11:24:00,
2013-07-17 06:29:00,73.6,68.9,30.25,South,180,3.4,3.4,85,0.00,,,0.00,WUHU216HW,2013-07-17 11:29:00,
2013-07-17 06:34:00,73.8,69.0,30.25,South,180,3.1,3.4,85,0.00,,,0.00,WUHU216HW,2013-07-17 11:34:00,
2013-07-17 06:39:00,73.6,68.9,30.25,SSE,158,2.9,3.4,85,0.00,,,0.00,WUHU216HW,2013-07-17 11:39:00,
2013-07-17 06:44:00,73.6,68.9,30.25,SSE,158,2.7,3.1,85,0.00,,,0.00,WUHU216HW,2013-07-17 11:44:00,
2013-07-17 06:49:00,74.3,69.6,30.26,South,180,2.5,4.0,85,0.00,,,0.00,WUHU216HW,2013-07-17 11:49:00,
2013-07-17 06:54:00,75.1,70.3,30.25,SSE,158,3.6,4.0,85,0.00,,,0.00,WUHU216HW,2013-07-17 11:54:00,
2013-07-17 06:59:00,75.6,70.5,30.26,South,180,3.4,3.6,84,0.00,,,0.00,WUHU216HW,2013-07-17 11:59:00,
2013-07-17 07:04:00,76.5,70.6,30.26,South,180,2.5,3.6,82,0.00,,,0.00,WUHU216HW,2013-07-17 12:04:00,
2013-07-17 07:09:00,77.0,70.7,30.26,South,180,3.1,3.1,81,0.00,,,0.00,WUHU216HW,2013-07-17 12:09:00,
2013-07-17 07:14:00,77.2,70.9,30.26,South,180,3.8,3.8,81,0.00,,,0.00,WUHU216HW,2013-07-17 12:14:00,
2013-07-17 07:19:00,77.8,70.8,30.26,SSE,158,5.1,5.1,79,0.00,,,0.00,WUHU216HW,2013-07-17 12:19:00,
2013-07-17 07:24:00,77.6,70.6,30.26,South,180,2.9,5.1,79,0.00,,,0.00,WUHU216HW,2013-07-17 12:24:00,
2013-07-17 07:29:00,77.0,70.0,30.26,SSW,203,4.0,5.1,79,0.00,,,0.00,WUHU216HW,2013-07-17 12:29:00,
2013-07-17 07:34:00,76.5,70.3,30.26,South,180,4.0,4.0,81,0.00,,,0.00,WUHU216HW,2013-07-17 12:34:00,
2013-07-17 07:39:00,76.3,70.5,30.27,SSW,203,3.4,4.0,82,0.00,,,0.00,WUHU216HW,2013-07-17 12:39:00,
2013-07-17 07:44:00,76.7,70.4,30.27,South,180,3.4,4.0,81,0.00,,,0.00,WUHU216HW,2013-07-17 12:44:00,
2013-07-17 07:49:00,77.4,71.1,30.27,SSW,203,3.4,3.6,81,0.00,,,0.00,WUHU216HW,2013-07-17 12:49:00,
2013-07-17 07:54:00,77.4,70.7,30.27,South,180,4.5,4.5,80,0.00,,,0.00,WUHU216HW,2013-07-17 12:54:00,
2013-07-17 07:59:00,77.9,70.9,30.27,SSW,203,4.0,4.5,79,0.00,,,0.00,WUHU216HW,2013-07-17 12:59:00,
2013-07-17 08:04:00,79.4,71.9,30.27,SSW,203,2.5,4.5,78,0.00,,,0.00,WUHU216HW,2013-07-17 13:04:00,
2013-07-17 08:09:00,79.9,71.6,30.27,South,180,3.1,3.1,76,0.00,,,0.00,WUHU216HW,2013-07-17 13:09:00,
2013-07-17 08:14:00,80.1,71.8,30.27,SSW,203,3.4,3.4,76,0.00,,,0.00,WUHU216HW,2013-07-17 13:14:00,
2013-07-17 08:19:00,80.8,72.2,30.27,SW,225,3.4,3.4,75,0.00,,,0.00,WUHU216HW,2013-07-17 13:19:00,
2013-07-17 08:24:00,81.0,71.9,30.27,SW,225,3.4,3.4,74,0.00,,,0.00,WUHU216HW,2013-07-17 13:24:00,
2013-07-17 08:29:00,81.4,71.9,30.28,SW,225,5.4,5.4,73,0.00,,,0.00,WUHU216HW,2013-07-17 13:29:00,
2013-07-17 08:34:00,81.9,72.4,30.27,SSW,203,3.4,5.4,73,0.00,,,0.00,WUHU216HW,2013-07-17 13:34:00,
2013-07-17 08:39:00,83.0,73.8,30.28,SSW,203,2.7,3.4,74,0.00,,,0.00,WUHU216HW,2013-07-17 13:39:00,
2013-07-17 08:44:00,84.2,73.8,30.28,SSW,203,2.5,3.4,71,0.00,,,0.00,WUHU216HW,2013-07-17 13:44:00,
2013-07-17 08:49:00,84.4,73.2,30.28,SSW,203,3.8,3.8,69,0.00,,,0.00,WUHU216HW,2013-07-17 13:49:00,
2013-07-17 08:54:00,84.6,72.9,30.28,SW,225,4.0,4.0,68,0.00,,,0.00,WUHU216HW,2013-07-17 13:54:00,
2013-07-17 08:59:00,85.7,73.0,30.28,SW,225,4.0,4.3,66,0.00,,,0.00,WUHU216HW,2013-07-17 13:59:00,
2013-07-17 09:04:00,86.0,73.8,30.28,SSW,203,3.1,4.3,67,0.00,,,0.00,WUHU216HW,2013-07-17 14:04:00,
2013-07-17 09:09:00,86.8,73.6,30.28,West,270,2.2,4.0,65,0.00,,,0.00,WUHU216HW,2013-07-17 14:09:00,
2013-07-17 09:14:00,86.8,71.7,30.28,SSW,203,5.8,5.8,61,0.00,,,0.00,WUHU216HW,2013-07-17 14:14:00,
2013-07-17 09:19:00,85.3,71.7,30.28,WSW,248,2.2,5.8,64,0.00,,,0.00,WUHU216HW,2013-07-17 14:19:00,
2013-07-17 09:24:00,85.3,71.7,30.28,SW,225,4.5,4.5,64,0.00,,,0.00,WUHU216HW,2013-07-17 14:24:00,
2013-07-17 09:29:00,85.0,71.5,30.28,SW,225,4.0,4.5,64,0.00,,,0.00,WUHU216HW,2013-07-17 14:29:00,
2013-07-17 09:34:00,85.1,71.6,30.28,SW,225,4.3,4.5,64,0.00,,,0.00,WUHU216HW,2013-07-17 14:34:00,
2013-07-17 09:39:00,85.7,72.1,30.28,SSW,203,2.0,4.3,64,0.00,,,0.00,WUHU216HW,2013-07-17 14:39:00,
2013-07-17 09:44:00,86.9,71.9,30.28,SW,225,4.7,4.7,61,0.00,,,0.00,WUHU216HW,2013-07-17 14:44:00,
2013-07-17 09:49:00,86.6,72.5,30.28,SSW,203,5.6,5.6,63,0.00,,,0.00,WUHU216HW,2013-07-17 14:49:00,
2013-07-17 09:54:00,86.0,71.5,30.28,SW,225,1.3,5.6,62,0.00,,,0.00,WUHU216HW,2013-07-17 14:54:00,
2013-07-17 09:59:00,86.0,71.5,30.28,WSW,248,4.3,5.6,62,0.00,,,0.00,WUHU216HW,2013-07-17 14:59:00,
2013-07-17 10:04:00,86.0,71.5,30.28,SW,225,3.8,4.3,62,0.00,,,0.00,WUHU216HW,2013-07-17 15:04:00,
2013-07-17 10:09:00,86.4,72.3,30.28,WSW,248,3.4,4.3,63,0.00,,,0.00,WUHU216HW,2013-07-17 15:09:00,
2013-07-17 10:14:00,87.1,73.0,30.28,SSW,203,4.0,4.0,63,0.00,,,0.00,WUHU216HW,2013-07-17 15:14:00,
2013-07-17 10:19:00,87.1,72.1,30.28,SW,225,4.3,5.4,61,0.00,,,0.00,WUHU216HW,2013-07-17 15:19:00,
2013-07-17 10:24:00,86.9,72.4,30.28,West,270,2.0,5.4,62,0.00,,,0.00,WUHU216HW,2013-07-17 15:24:00,
2013-07-17 10:29:00,87.1,72.5,30.28,WSW,248,2.5,4.3,62,0.00,,,0.00,WUHU216HW,2013-07-17 15:29:00,
2013-07-17 10:34:00,87.8,72.8,30.28,SW,225,2.0,4.9,61,0.00,,,0.00,WUHU216HW,2013-07-17 15:34:00,
2013-07-17 10:39:00,87.8,72.8,30.28,SW,225,2.0,4.9,61,0.00,,,0.00,WUHU216HW,2013-07-17 15:39:00,
2013-07-17 10:44:00,87.8,72.8,30.28,SW,225,2.0,2.0,61,0.00,,,0.00,WUHU216HW,2013-07-17 15:44:00,
2013-07-17 11:00:00,88.2,71.7,30.28,WSW,248,1.8,1.8,58,0.00,,,0.00,WUHU216HW,2013-07-17 16:00:00,
2013-07-17 11:05:00,89.3,73.6,30.28,SW,225,1.1,1.8,60,0.00,,,0.00,WUHU216HW,2013-07-17 16:05:00,
2013-07-17 11:10:00,89.1,71.4,30.28,SW,225,1.3,1.3,56,0.00,,,0.00,WUHU216HW,2013-07-17 16:10:00,
2013-07-17 11:15:00,89.3,72.0,30.28,SSW,203,2.5,2.5,57,0.00,,,0.00,WUHU216HW,2013-07-17 16:15:00,
2013-07-17 11:20:00,89.3,72.5,30.28,SSW,203,2.2,4.7,58,0.00,,,0.00,WUHU216HW,2013-07-17 16:20:00,
2013-07-17 11:25:00,89.6,72.4,30.28,North,0,1.3,4.7,57,0.00,,,0.00,WUHU216HW,2013-07-17 16:25:00,
2013-07-17 11:30:00,90.4,71.9,30.28,NNE,23,0.7,2.2,55,0.00,,,0.00,WUHU216HW,2013-07-17 16:30:00,
2013-07-17 11:35:00,91.1,72.5,30.27,North,0,3.4,3.4,55,0.00,,,0.00,WUHU216HW,2013-07-17 16:35:00,
2013-07-17 11:40:00,90.7,71.2,30.27,NNW,338,2.0,3.4,53,0.00,,,0.00,WUHU216HW,2013-07-17 16:40:00,
2013-07-17 11:45:00,90.2,70.7,30.27,SW,225,1.8,3.4,53,0.00,,,0.00,WUHU216HW,2013-07-17 16:45:00,
2013-07-17 11:50:00,91.1,71.5,30.27,SW,225,1.3,2.0,53,0.00,,,0.00,WUHU216HW,2013-07-17 16:50:00,
2013-07-17 11:55:00,91.1,72.5,30.27,SSW,203,1.8,2.0,55,0.00,,,0.00,WUHU216HW,2013-07-17 16:55:00,
2013-07-17 12:00:00,90.7,71.2,30.27,South,180,4.7,4.7,53,0.00,,,0.00,WUHU216HW,2013-07-17 17:00:00,
2013-07-17 12:05:00,91.4,71.8,30.27,SW,225,2.9,4.7,53,0.00,,,0.00,WUHU216HW,2013-07-17 17:05:00,
2013-07-17 12:10:00,91.6,71.5,30.27,North,0,0.9,2.9,52,0.00,,,0.00,WUHU216HW,2013-07-17 17:10:00,
2013-07-17 12:15:00,92.2,70.8,30.27,SSW,203,4.5,4.5,50,0.00,,,0.00,WUHU216HW,2013-07-17 17:15:00,
2013-07-17 12:20:00,92.9,72.1,30.27,North,0,1.8,4.5,51,0.00,,,0.00,WUHU216HW,2013-07-17 17:20:00,
2013-07-17 12:25:00,92.7,71.9,30.27,WSW,248,3.4,3.4,51,0.00,,,0.00,WUHU216HW,2013-07-17 17:25:00,
2013-07-17 12:30:00,90.9,70.8,30.27,WSW,248,1.6,3.4,52,0.00,,,0.00,WUHU216HW,2013-07-17 17:30:00,
2013-07-17 12:35:00,91.4,71.8,30.27,SSW,203,3.1,3.4,53,0.00,,,0.00,WUHU216HW,2013-07-17 17:35:00,
2013-07-17 12:40:00,92.2,71.9,30.27,South,180,4.5,4.5,52,0.00,,,0.00,WUHU216HW,2013-07-17 17:40:00,
2013-07-17 12:45:00,92.0,70.7,30.27,SE,135,0.7,4.5,50,0.00,,,0.00,WUHU216HW,2013-07-17 17:45:00,
2013-07-17 12:50:00,90.4,70.3,30.27,SW,225,1.1,4.5,52,0.00,,,0.00,WUHU216HW,2013-07-17 17:50:00,
2013-07-17 12:55:00,90.4,70.8,30.27,West,270,1.3,2.9,53,0.00,,,0.00,WUHU216HW,2013-07-17 17:55:00,
2013-07-17 13:00:00,90.5,71.0,30.27,SSW,203,0.4,1.3,53,0.00,,,0.00,WUHU216HW,2013-07-17 18:00:00,
2013-07-17 13:05:00,91.1,70.9,30.27,NNW,338,0.4,1.3,52,0.00,,,0.00,WUHU216HW,2013-07-17 18:05:00,
2013-07-17 13:10:00,91.1,71.5,30.26,South,180,4.0,4.0,53,0.00,,,0.00,WUHU216HW,2013-07-17 18:10:00,
2013-07-17 13:15:00,91.1,71.5,30.26,SSW,203,3.4,4.0,53,0.00,,,0.00,WUHU216HW,2013-07-17 18:15:00,
2013-07-17 13:20:00,92.0,70.7,30.26,SE,135,1.8,4.0,50,0.00,,,0.00,WUHU216HW,2013-07-17 18:20:00,
2013-07-17 13:25:00,92.2,70.2,30.26,East,90,2.0,2.0,49,0.00,,,0.00,WUHU216HW,2013-07-17 18:25:00,
2013-07-17 13:30:00,91.6,71.5,30.26,SE,135,0.4,2.0,52,0.00,,,0.00,WUHU216HW,2013-07-17 18:30:00,
2013-07-17 13:35:00,92.3,71.6,30.26,SSE,158,1.8,2.0,51,0.00,,,0.00,WUHU216HW,2013-07-17 18:35:00,
2013-07-17 13:40:00,92.7,71.9,30.25,SSE,158,0.4,1.8,51,0.00,,,0.00,WUHU216HW,2013-07-17 18:40:00,
2013-07-17 13:45:00,93.6,71.6,30.25,WSW,248,0.7,0.7,49,0.00,,,0.00,WUHU216HW,2013-07-17 18:45:00,
2013-07-17 13:50:00,93.4,70.8,30.25,NNE,23,1.1,1.1,48,0.00,,,0.00,WUHU216HW,2013-07-17 18:50:00,
2013-07-17 13:55:00,92.9,71.5,30.25,SSW,203,4.0,4.0,50,0.00,,,0.00,WUHU216HW,2013-07-17 18:55:00,
2013-07-17 14:00:00,92.3,71.0,30.25,SSW,203,1.1,4.0,50,0.00,,,0.00,WUHU216HW,2013-07-17 19:00:00,
2013-07-17 14:05:00,93.2,71.8,30.25,SSE,158,2.5,4.0,50,0.00,,,0.00,WUHU216HW,2013-07-17 19:05:00,
2013-07-17 14:10:00,92.7,70.7,30.25,SSW,203,3.1,3.1,49,0.00,,,0.00,WUHU216HW,2013-07-17 19:10:00,
2013-07-17 14:15:00,91.4,70.7,30.25,South,180,0.9,3.1,51,0.00,,,0.00,WUHU216HW,2013-07-17 19:15:00,
2013-07-17 14:20:00,90.2,71.7,30.25,SSW,203,1.6,3.1,55,0.00,,,0.00,WUHU216HW,2013-07-17 19:20:00,
2013-07-17 14:25:00,90.7,72.3,30.24,SSE,158,1.6,1.6,55,0.00,,,0.00,WUHU216HW,2013-07-17 19:25:00,
2013-07-17 14:30:00,92.9,73.2,30.24,SSE,158,4.7,4.7,53,0.00,,,0.00,WUHU216HW,2013-07-17 19:30:00,
2013-07-17 14:35:00,94.1,71.4,30.23,SSE,158,1.3,4.7,48,0.00,,,0.00,WUHU216HW,2013-07-17 19:35:00,
2013-07-17 14:40:00,95.2,71.1,30.23,SSW,203,2.0,4.5,46,0.00,,,0.00,WUHU216HW,2013-07-17 19:40:00,
2013-07-17 14:45:00,95.0,70.9,30.23,South,180,3.4,3.4,46,0.00,,,0.00,WUHU216HW,2013-07-17 19:45:00,
2013-07-17 14:50:00,94.1,70.1,30.23,SE,135,2.5,5.8,46,0.00,,,0.00,WUHU216HW,2013-07-17 19:50:00,
2013-07-17 14:55:00,94.3,71.6,30.23,SSW,203,4.0,5.8,48,0.00,,,0.00,WUHU216HW,2013-07-17 19:55:00,
2013-07-17 15:00:00,94.3,72.3,30.22,SSE,158,5.4,8.9,49,0.00,,,0.00,WUHU216HW,2013-07-17 20:00:00,
2013-07-17 15:05:00,93.1,71.6,30.22,SSE,158,4.3,8.9,50,0.00,,,0.00,WUHU216HW,2013-07-17 20:05:00,
2013-07-17 15:10:00,92.3,72.6,30.22,SE,135,2.5,5.4,53,0.00,,,0.00,WUHU216HW,2013-07-17 20:10:00,
2013-07-17 15:15:00,95.0,72.3,30.22,SE,135,4.0,4.3,48,0.00,,,0.00,WUHU216HW,2013-07-17 20:15:00,
2013-07-17 15:20:00,96.1,73.3,30.22,SSE,158,2.9,4.0,48,0.00,,,0.00,WUHU216HW,2013-07-17 20:20:00,
2013-07-17 15:25:00,95.9,71.1,30.22,South,180,4.0,4.0,45,0.00,,,0.00,WUHU216HW,2013-07-17 20:25:00,
2013-07-17 15:30:00,93.8,71.0,30.22,SE,135,2.9,4.0,48,0.00,,,0.00,WUHU216HW,2013-07-17 20:30:00,
2013-07-17 15:35:00,95.8,71.7,30.22,SE,135,2.7,2.9,46,0.00,,,0.00,WUHU216HW,2013-07-17 20:35:00,
2013-07-17 15:40:00,95.4,71.3,30.22,WSW,248,1.6,2.7,46,0.00,,,0.00,WUHU216HW,2013-07-17 20:40:00,
2013-07-17 15:45:00,92.9,71.5,30.22,SW,225,2.2,2.7,50,0.00,,,0.00,WUHU216HW,2013-07-17 20:45:00,
2013-07-17 15:50:00,90.4,70.8,30.22,WSW,248,1.1,2.2,53,0.00,,,0.00,WUHU216HW,2013-07-17 20:50:00,
2013-07-17 15:55:00,89.6,71.3,30.22,WSW,248,0.4,1.1,55,0.00,,,0.00,WUHU216HW,2013-07-17 20:55:00,
2013-07-17 16:00:00,89.1,72.5,30.21,NNW,338,0.0,1.1,58,0.00,,,0.00,WUHU216HW,2013-07-17 21:00:00,
2013-07-17 16:05:00,88.7,71.0,30.21,NW,315,0.0,0.4,56,0.00,,,0.00,WUHU216HW,2013-07-17 21:05:00,
2013-07-17 16:10:00,88.6,70.8,30.21,NW,315,0.7,0.7,56,0.00,,,0.00,WUHU216HW,2013-07-17 21:10:00,
2013-07-17 16:15:00,88.2,71.1,30.21,NW,315,0.0,0.7,57,0.00,,,0.00,WUHU216HW,2013-07-17 21:15:00,
2013-07-17 16:20:00,87.7,72.2,30.21,NNW,338,0.0,0.7,60,0.00,,,0.00,WUHU216HW,2013-07-17 21:20:00,
2013-07-17 16:25:00,87.5,72.5,30.21,NNW,338,0.7,0.7,61,0.00,,,0.00,WUHU216HW,2013-07-17 21:25:00,
2013-07-17 16:30:00,87.7,72.2,30.21,NW,315,0.7,0.7,60,0.00,,,0.00,WUHU216HW,2013-07-17 21:30:00,
2013-07-17 16:35:00,88.2,72.2,30.20,NNW,338,0.0,0.7,59,0.00,,,0.00,WUHU216HW,2013-07-17 21:35:00,
2013-07-17 16:40:00,88.6,73.0,30.20,NNW,338,0.0,0.0,60,0.00,,,0.00,WUHU216HW,2013-07-17 21:40:00,
2013-07-17 16:45:00,88.6,73.4,30.20,NNW,338,0.0,0.0,61,0.00,,,0.00,WUHU216HW,2013-07-17 21:45:00,
2013-07-17 16:50:00,88.6,72.5,30.20,NW,315,0.0,1.1,59,0.00,,,0.00,WUHU216HW,2013-07-17 21:50:00,
2013-07-17 16:55:00,88.6,71.9,30.20,NNW,338,0.4,1.1,58,0.00,,,0.00,WUHU216HW,2013-07-17 21:55:00,
2013-07-17 17:00:00,88.7,73.2,30.19,NNW,338,0.0,0.7,60,0.00,,,0.00,WUHU216HW,2013-07-17 22:00:00,
2013-07-17 17:05:00,89.1,74.0,30.19,WNW,293,0.0,0.7,61,0.00,,,0.00,WUHU216HW,2013-07-17 22:05:00,
2013-07-17 17:10:00,88.9,73.8,30.19,NW,315,1.1,1.1,61,0.00,,,0.00,WUHU216HW,2013-07-17 22:10:00,
2013-07-17 17:15:00,88.0,73.9,30.19,NNW,338,0.7,1.1,63,0.00,,,0.00,WUHU216HW,2013-07-17 22:15:00,
2013-07-17 17:20:00,87.5,73.4,30.19,NNW,338,1.1,1.1,63,0.00,,,0.00,WUHU216HW,2013-07-17 22:20:00,
2013-07-17 17:25:00,87.5,73.8,30.19,NW,315,0.0,1.1,64,0.00,,,0.00,WUHU216HW,2013-07-17 22:25:00,
2013-07-17 17:30:00,87.1,73.4,30.19,North,0,4.0,4.3,64,0.00,,,0.00,WUHU216HW,2013-07-17 22:30:00,
2013-07-17 17:35:00,86.8,73.6,30.18,NNW,338,1.3,4.3,65,0.00,,,0.00,WUHU216HW,2013-07-17 22:35:00,
2013-07-17 17:40:00,86.2,73.5,30.18,North,0,2.5,4.0,66,0.00,,,0.00,WUHU216HW,2013-07-17 22:40:00,
2013-07-17 17:45:00,85.7,73.5,30.18,North,0,3.1,3.6,67,0.00,,,0.00,WUHU216HW,2013-07-17 22:45:00,
2013-07-17 17:50:00,85.7,73.0,30.18,North,0,4.9,4.9,66,0.00,,,0.00,WUHU216HW,2013-07-17 22:50:00,
2013-07-17 17:55:00,86.0,73.4,30.18,NNW,338,1.8,4.9,66,0.00,,,0.00,WUHU216HW,2013-07-17 22:55:00,
2013-07-17 18:00:00,87.3,73.6,30.18,North,0,1.1,4.9,64,0.00,,,0.00,WUHU216HW,2013-07-17 23:00:00,
2013-07-17 18:05:00,87.5,73.4,30.18,NNW,338,1.8,1.8,63,0.00,,,0.00,WUHU216HW,2013-07-17 23:05:00,
2013-07-17 18:10:00,87.7,73.1,30.17,North,0,4.5,4.5,62,0.00,,,0.00,WUHU216HW,2013-07-17 23:10:00,
2013-07-17 18:15:00,88.0,73.5,30.18,North,0,1.1,4.5,62,0.00,,,0.00,WUHU216HW,2013-07-17 23:15:00,
2013-07-17 18:20:00,88.2,73.6,30.17,NNE,23,3.4,4.5,62,0.00,,,0.00,WUHU216HW,2013-07-17 23:20:00,
2013-07-17 18:25:00,87.8,73.7,30.17,North,0,2.2,3.4,63,0.00,,,0.00,WUHU216HW,2013-07-17 23:25:00,
2013-07-17 18:30:00,88.0,74.4,30.17,North,0,2.5,3.4,64,0.00,,,0.00,WUHU216HW,2013-07-17 23:30:00,
2013-07-17 18:35:00,88.4,73.8,30.17,NNW,338,3.1,3.1,62,0.00,,,0.00,WUHU216HW,2013-07-17 23:35:00,
2013-07-17 18:40:00,88.6,74.3,30.17,North,0,3.6,3.6,63,0.00,,,0.00,WUHU216HW,2013-07-17 23:40:00,
2013-07-17 18:45:00,88.9,73.8,30.17,NNE,23,4.9,4.9,61,0.00,,,0.00,WUHU216HW,2013-07-17 23:45:00,
2013-07-17 18:50:00,88.6,73.4,30.17,NNE,23,4.0,4.9,61,0.00,,,0.00,WUHU216HW,2013-07-17 23:50:00,
2013-07-17 18:55:00,88.4,73.3,30.17,NNE,23,4.9,4.9,61,0.00,,,0.00,WUHU216HW,2013-07-17 23:55:00,
2013-07-17 19:00:00,88.2,73.6,30.17,NE,45,3.4,4.9,62,0.00,,,0.00,WUHU216HW,2013-07-18 00:00:00,
2013-07-17 19:05:00,88.2,73.6,30.17,NNE,23,2.7,5.4,62,0.00,,,0.00,WUHU216HW,2013-07-18 00:05:00,
2013-07-17 19:10:00,88.0,73.5,30.17,NNE,23,3.8,5.4,62,0.00,,,0.00,WUHU216HW,2013-07-18 00:10:00,
2013-07-17 19:15:00,88.0,73.5,30.16,North,0,1.8,3.8,62,0.00,,,0.00,WUHU216HW,2013-07-18 00:15:00,
2013-07-17 19:20:00,87.8,73.3,30.16,North,0,0.9,3.8,62,0.00,,,0.00,WUHU216HW,2013-07-18 00:20:00,
2013-07-17 19:25:00,87.1,73.4,30.16,NNE,23,3.4,3.4,64,0.00,,,0.00,WUHU216HW,2013-07-18 00:25:00,
2013-07-17 19:30:00,86.4,73.3,30.17,NNE,23,2.7,3.4,65,0.00,,,0.00,WUHU216HW,2013-07-18 00:30:00,
2013-07-17 19:35:00,85.5,73.4,30.17,NNE,23,4.0,4.0,67,0.00,,,0.00,WUHU216HW,2013-07-18 00:35:00,
2013-07-17 19:40:00,85.3,73.2,30.16,NNE,23,2.9,4.0,67,0.00,,,0.00,WUHU216HW,2013-07-18 00:40:00,
2013-07-17 19:45:00,85.0,72.8,30.16,North,0,4.0,4.0,67,0.00,,,0.00,WUHU216HW,2013-07-18 00:45:00,
2013-07-17 19:50:00,84.6,73.8,30.17,NE,45,2.7,4.0,70,0.00,,,0.00,WUHU216HW,2013-07-18 00:50:00,
2013-07-17 19:55:00,84.1,73.3,30.17,NNE,23,3.6,3.6,70,0.00,,,0.00,WUHU216HW,2013-07-18 00:55:00,
2013-07-17 20:00:00,83.9,72.6,30.17,NNE,23,3.1,3.6,69,0.00,,,0.00,WUHU216HW,2013-07-18 01:00:00,
2013-07-17 20:05:00,83.7,72.9,30.16,North,0,2.5,3.6,70,0.00,,,0.00,WUHU216HW,2013-07-18 01:05:00,
2013-07-17 20:10:00,83.5,73.1,30.16,NNE,23,3.1,3.1,71,0.00,,,0.00,WUHU216HW,2013-07-18 01:10:00,
2013-07-17 20:15:00,83.2,72.8,30.16,North,0,3.1,3.1,71,0.00,,,0.00,WUHU216HW,2013-07-18 01:15:00,
2013-07-17 20:20:00,82.8,72.5,30.16,NNE,23,1.1,3.1,71,0.00,,,0.00,WUHU216HW,2013-07-18 01:20:00,
2013-07-17 20:25:00,82.6,72.6,30.16,NNE,23,2.7,2.7,72,0.00,,,0.00,WUHU216HW,2013-07-18 01:25:00,
2013-07-17 20:30:00,82.4,72.5,30.16,North,0,2.9,2.9,72,0.00,,,0.00,WUHU216HW,2013-07-18 01:30:00,
2013-07-17 20:35:00,82.1,72.2,30.16,NNE,23,1.1,2.9,72,0.00,,,0.00,WUHU216HW,2013-07-18 01:35:00,
2013-07-17 20:40:00,81.7,71.8,30.16,NNE,23,2.0,2.5,72,0.00,,,0.00,WUHU216HW,2013-07-18 01:40:00,
2013-07-17 20:45:00,81.5,72.0,30.16,NNE,23,1.8,2.0,73,0.00,,,0.00,WUHU216HW,2013-07-18 01:45:00,
2013-07-17 20:50:00,81.2,72.1,30.16,NNE,23,2.9,2.9,74,0.00,,,0.00,WUHU216HW,2013-07-18 01:50:00,
2013-07-17 20:55:00,81.0,71.9,30.16,NNE,23,2.7,2.9,74,0.00,,,0.00,WUHU216HW,2013-07-18 01:55:00,
2013-07-17 21:00:00,81.0,71.9,30.16,North,0,1.1,2.9,74,0.00,,,0.00,WUHU216HW,2013-07-18 02:00:00,
2013-07-17 21:05:00,81.0,71.9,30.16,NNE,23,1.6,2.7,74,0.00,,,0.00,WUHU216HW,2013-07-18 02:05:00,
2013-07-17 21:10:00,80.8,72.2,30.16,NNE,23,1.1,1.6,75,0.00,,,0.00,WUHU216HW,2013-07-18 02:10:00,
2013-07-17 21:15:00,80.5,71.8,30.16,NNE,23,0.7,1.6,75,0.00,,,0.00,WUHU216HW,2013-07-18 02:15:00,
2013-07-17 21:20:00,80.3,72.0,30.16,NNE,23,2.5,2.5,76,0.00,,,0.00,WUHU216HW,2013-07-18 02:20:00,
2013-07-17 21:25:00,80.3,72.0,30.16,NNE,23,1.1,2.5,76,0.00,,,0.00,WUHU216HW,2013-07-18 02:25:00,
2013-07-17 21:30:00,80.6,72.0,30.16,NNE,23,2.0,2.5,75,0.00,,,0.00,WUHU216HW,2013-07-18 02:30:00,
2013-07-17 21:35:00,80.3,72.0,30.16,NNE,23,1.8,2.0,76,0.00,,,0.00,WUHU216HW,2013-07-18 02:35:00,
2013-07-17 21:40:00,80.3,72.0,30.16,NNE,23,1.1,2.0,76,0.00,,,0.00,WUHU216HW,2013-07-18 02:40:00,
2013-07-17 21:45:00,79.9,72.1,30.17,NE,45,1.3,1.8,77,0.00,,,0.00,WUHU216HW,2013-07-18 02:45:00,
2013-07-17 21:50:00,80.3,72.5,30.17,NE,45,2.2,2.2,77,0.00,,,0.00,WUHU216HW,2013-07-18 02:50:00,
2013-07-17 21:55:00,80.5,72.2,30.17,NE,45,2.0,2.2,76,0.00,,,0.00,WUHU216HW,2013-07-18 02:55:00,
2013-07-17 22:00:00,80.6,72.4,30.17,ENE,68,2.7,2.7,76,0.00,,,0.00,WUHU216HW,2013-07-18 03:00:00,
2013-07-17 22:05:00,80.5,72.2,30.17,NE,45,1.8,2.7,76,0.00,,,0.00,WUHU216HW,2013-07-18 03:05:00,
2013-07-17 22:10:00,80.3,71.6,30.17,NE,45,0.9,1.8,75,0.00,,,0.00,WUHU216HW,2013-07-18 03:10:00,
2013-07-17 22:15:00,79.9,71.6,30.17,NE,45,0.7,1.8,76,0.00,,,0.00,WUHU216HW,2013-07-18 03:15:00,
2013-07-17 22:20:00,79.7,71.1,30.17,ENE,68,1.3,1.3,75,0.00,,,0.00,WUHU216HW,2013-07-18 03:20:00,
2013-07-17 22:25:00,79.9,71.3,30.17,NE,45,1.8,1.8,75,0.00,,,0.00,WUHU216HW,2013-07-18 03:25:00,
2013-07-17 22:30:00,79.9,71.3,30.17,East,90,1.3,1.8,75,0.00,,,0.00,WUHU216HW,2013-07-18 03:30:00,
2013-07-17 22:35:00,79.9,71.3,30.17,ENE,68,1.1,1.8,75,0.00,,,0.00,WUHU216HW,2013-07-18 03:35:00,
2013-07-17 22:40:00,79.7,71.1,30.17,ENE,68,1.1,1.3,75,0.00,,,0.00,WUHU216HW,2013-07-18 03:40:00,
2013-07-17 22:45:00,79.9,71.3,30.17,ENE,68,1.8,1.8,75,0.00,,,0.00,WUHU216HW,2013-07-18 03:45:00,
2013-07-17 22:50:00,79.7,71.1,30.17,ENE,68,1.3,1.8,75,0.00,,,0.00,WUHU216HW,2013-07-18 03:50:00,
2013-07-17 22:55:00,79.6,70.9,30.17,NNE,23,1.1,1.8,75,0.00,,,0.00,WUHU216HW,2013-07-18 03:55:00,
2013-07-17 23:00:00,79.6,71.3,30.18,ENE,68,0.7,1.3,76,0.00,,,0.00,WUHU216HW,2013-07-18 04:00:00,
2013-07-17 23:01:00,79.4,71.1,30.18,NE,45,1.1,1.3,76,0.00,,,0.00,WUHU216HW,2013-07-18 04:01:00,
2013-07-17 23:06:00,79.2,70.9,30.17,ENE,68,1.8,1.8,76,0.00,,,0.00,WUHU216HW,2013-07-18 04:06:00,
2013-07-17 23:11:00,79.2,70.9,30.18,NE,45,0.0,1.8,76,0.00,,,0.00,WUHU216HW,2013-07-18 04:11:00,
2013-07-17 23:16:00,78.8,70.6,30.18,NE,45,0.7,1.8,76,0.00,,,0.00,WUHU216HW,2013-07-18 04:16:00,
2013-07-17 23:21:00,78.8,70.6,30.18,NE,45,0.2,1.1,76,0.00,,,0.00,WUHU216HW,2013-07-18 04:21:00,
2013-07-17 23:26:00,78.8,70.6,30.18,NE,45,0.0,1.1,76,0.00,,,0.00,WUHU216HW,2013-07-18 04:26:00,
2013-07-17 23:31:00,78.7,70.4,30.18,ENE,68,0.4,0.4,76,0.00,,,0.00,WUHU216HW,2013-07-18 04:31:00,
2013-07-17 23:36:00,78.8,71.0,30.18,East,90,0.9,0.9,77,0.00,,,0.00,WUHU216HW,2013-07-18 04:36:00,
2013-07-17 23:41:00,78.7,70.8,30.18,ENE,68,0.4,0.9,77,0.00,,,0.00,WUHU216HW,2013-07-18 04:41:00,
2013-07-17 23:46:00,78.5,70.7,30.18,East,90,0.0,0.9,77,0.00,,,0.00,WUHU216HW,2013-07-18 04:46:00,
2013-07-17 23:51:00,78.3,70.8,30.18,ESE,113,0.7,0.9,78,0.00,,,0.00,WUHU216HW,2013-07-18 04:51:00,
2013-07-17 23:56:00,78.3,70.5,30.18,ENE,68,0.4,0.9,77,0.00,,,0.00,WUHU216HW,2013-07-18 04:56:00,